Weather History for Hilton Head Island, SC

Change the Weather History Date:

Wednesday, June 19, 2013

  Actual Average Record
Temperature  
Mean Temperature 78 °F -  
Max Temperature 86 °F 87 °F 100 °F (1984)
Min Temperature 71 °F 69 °F 58 °F (1961)
Cooling Degree Days 14    
Growing Degree Days 28 (Base 50)    
Moisture  
Dew Point 72 °F    
Average Humidity 86    
Maximum Humidity 100    
Minimum Humidity 66    
Precipitation  
Precipitation 0.69 in - - ()
Sea Level Pressure  
Sea Level Pressure 29.98 in    
Wind  
Wind Speed 7 mph (SSW)    
Max Wind Speed 13 mph    
Max Gust Speed 18 mph    
Visibility 8 miles    
Events Rain    
Averages and records for this station are not official NWS values.
T = Trace of Precipitation, MM = Missing Value Source: NWS Daily Summary

Daily Weather History Graph

Daily Weather History Graph

Search for Another Location

Airport:

Trip Planner

Search our weather history database for the weather conditions in past years. The results will help you decide how hot, cold, wet, or windy it might be!

Date:

Astronomy

Jun. 19, 2013 Rise Set
Actual Time 6:16 AM EDT 8:32 PM EDT
Civil Twilight 5:47 AM EDT 9:00 PM EDT
Nautical Twilight 5:13 AM EDT 9:35 PM EDT
Astronomical Twilight 4:35 AM EDT 10:12 PM EDT
Moon 4:32 PM EDT (6/19) 2:48 AM EDT (6/19)
Length of Visible Light 15h 12m
Length of Day
14h 15m
Waxing Gibbous, 80% of the Moon is Illuminated
Jun 19
Waxing Gibbous
Jun 23
Full
Jun 30
Last Quarter
Jul 8
New
Jul 15
First Quarter

Hourly Weather History & Observations

Time (EDT) Temp. Heat Index Dew Point Humidity Pressure Visibility Wind Dir Wind Speed Gust Speed Precip Events Conditions
12:15 AM 82.4 °F 92.4 °F 78.8 °F 89% 29.95 in 10.0 mi South 6.9 mph - 0.00 in   Clear
12:35 AM 82.4 °F 92.4 °F 78.8 °F 89% 29.94 in 10.0 mi South 5.8 mph - 0.00 in   Clear
12:55 AM 82.4 °F 89.5 °F 75.2 °F 79% 29.94 in 10.0 mi South 9.2 mph 16.1 mph 0.00 in   Clear
1:15 AM 82.4 °F 88.2 °F 73.4 °F 74% 29.94 in 10.0 mi South 10.4 mph - 0.00 in   Clear
1:35 AM 80.6 °F 84.6 °F 71.6 °F 74% 29.94 in 10.0 mi South 9.2 mph - 0.00 in   Clear
1:55 AM 80.6 °F 84.6 °F 71.6 °F 74% 29.93 in 10.0 mi South 10.4 mph 18.4 mph 0.00 in   Clear
2:15 AM 80.6 °F 84.6 °F 71.6 °F 74% 29.93 in 10.0 mi South 10.4 mph - 0.00 in   Clear
2:35 AM 80.6 °F 84.6 °F 71.6 °F 74% 29.94 in 10.0 mi SSW 9.2 mph - 0.00 in   Clear
2:55 AM 80.6 °F 84.6 °F 71.6 °F 74% 29.93 in 10.0 mi SSW 6.9 mph - 0.00 in   Clear
3:15 AM 80.6 °F 84.6 °F 71.6 °F 74% 29.94 in 10.0 mi SSW 9.2 mph - 0.00 in   Clear
3:35 AM 78.8 °F - 71.6 °F 78% 29.93 in 10.0 mi SSW 8.1 mph - 0.00 in   Clear
3:55 AM 78.8 °F - 71.6 °F 78% 29.94 in 10.0 mi SSW 9.2 mph - 0.00 in   Clear
4:15 AM 78.8 °F - 71.6 °F 78% 29.94 in 10.0 mi SW 11.5 mph 16.1 mph 0.00 in   Clear
4:35 AM 78.8 °F - 73.4 °F 83% 29.94 in 10.0 mi SW 9.2 mph 16.1 mph 0.00 in   Clear
4:55 AM 78.8 °F - 73.4 °F 83% 29.94 in 10.0 mi SSW 8.1 mph - 0.00 in   Clear
5:15 AM 78.8 °F - 73.4 °F 83% 29.95 in 10.0 mi SW 8.1 mph - 0.00 in   Clear
5:35 AM 78.8 °F - 73.4 °F 83% 29.95 in 10.0 mi SSW 5.8 mph - 0.00 in   Partly Cloudy
5:55 AM 78.8 °F - 73.4 °F 83% 29.95 in 2.5 mi WSW 12.7 mph 18.4 mph 0.13 in Rain Heavy Rain
6:15 AM 75.2 °F - 73.4 °F 94% 29.96 in 1.5 mi SW 12.7 mph 16.1 mph 0.36 in Rain Heavy Rain
6:35 AM 75.2 °F - 73.4 °F 94% 29.96 in 7.0 mi SW 8.1 mph - 0.55 in   Mostly Cloudy
6:50 AM 75.2 °F - 71.6 °F 89% 29.97 in 7.0 mi SSW 9.2 mph - N/A   Mostly Cloudy
7:50 AM 75.2 °F - 71.6 °F 89% 29.98 in 10.0 mi SSW 9.2 mph - N/A   Mostly Cloudy
8:50 AM 77.0 °F - 73.4 °F 89% 30.00 in 10.0 mi SSW 9.2 mph - N/A   Mostly Cloudy
9:50 AM 80.6 °F 86.2 °F 75.2 °F 84% 29.99 in 10.0 mi SW 5.8 mph - N/A   Scattered Clouds
10:45 AM 80.6 °F 83.9 °F 69.8 °F 70% 30.00 in 10.0 mi WSW 5.8 mph - N/A   Partly Cloudy
11:50 AM 86.0 °F 93.4 °F 73.4 °F 66% 30.01 in 10.0 mi West 5.8 mph 16.1 mph N/A   Scattered Clouds
12:50 PM 84.2 °F 90.9 °F 73.4 °F 70% 29.99 in 10.0 mi West 8.1 mph - N/A   Mostly Cloudy
1:50 PM 75.2 °F - 71.6 °F 89% 29.99 in 2.0 mi SSE 8.1 mph - N/A Rain Rain
1:55 PM 75.2 °F - 71.6 °F 89% 29.99 in 6.0 mi SSE 8.1 mph - N/A   Mostly Cloudy
3:53 PM 80.6 °F 85.4 °F 73.4 °F 79% 29.97 in 10.0 mi SSW 5.8 mph - N/A   Mostly Cloudy
4:08 PM 80.6 °F 85.4 °F 73.4 °F 79% 29.96 in 6.0 mi SSW 5.8 mph - N/A Rain Rain
4:48 PM 78.8 °F - 77.0 °F 94% 29.96 in 7.0 mi South 5.8 mph - N/A Rain Light Rain
5:24 PM 78.8 °F - 69.8 °F 74% 29.97 in 10.0 mi NNE 8.1 mph - N/A   Mostly Cloudy
5:50 PM 77.0 °F - 69.8 °F 78% 29.97 in 10.0 mi ENE 4.6 mph - N/A   Mostly Cloudy
6:50 PM 75.2 °F - 71.6 °F 89% 29.99 in 7.0 mi NNE 5.8 mph 17.3 mph N/A   Overcast
7:21 PM 71.6 °F - 68.0 °F 88% 30.00 in 1.5 mi NNE 11.5 mph 17.3 mph N/A Rain Heavy Rain
7:37 PM 71.6 °F - 71.6 °F 100% 30.05 in 0.2 mi West 11.5 mph 17.3 mph N/A Rain Heavy Rain
8:55 PM 71.6 °F - 71.6 °F 100% 30.04 in 2.5 mi Calm Calm - N/A Rain Light Rain
9:15 PM 71.6 °F - 71.6 °F 100% 30.02 in 5.0 mi ESE 3.5 mph - 0.01 in   Light Drizzle
9:35 PM 71.6 °F - 71.6 °F 100% 30.03 in 7.0 mi Calm Calm - 0.01 in   Clear
9:55 PM 71.6 °F - 71.6 °F 100% 30.03 in 5.0 mi Calm Calm - 0.01 in   Clear
10:15 PM 71.6 °F - 71.6 °F 100% 30.05 in 8.0 mi Calm Calm - 0.00 in   Clear
10:35 PM 71.6 °F - 71.6 °F 100% 30.06 in 7.0 mi East 3.5 mph - 0.00 in   Clear
10:55 PM 71.6 °F - 71.6 °F 100% 30.06 in 10.0 mi Calm Calm - 0.00 in   Scattered Clouds
11:15 PM 71.6 °F - 71.6 °F 100% 30.05 in 7.0 mi ENE 3.5 mph - 0.00 in   Mostly Cloudy
11:35 PM 71.6 °F - 71.6 °F 100% 30.05 in 8.0 mi Calm Calm - 0.00 in   Mostly Cloudy
11:55 PM 71.6 °F - 71.6 °F 100% 30.05 in 5.0 mi Calm Calm - 0.00 in   Scattered Clouds